| time (UTC) | temp F | wind direction | speed knots | gust knots | rain 1hr in | rain 24hr in | rain mn in | humidity % | barometer mb |
| 20260509224328 | 86 | 115 | 0.0 | 0.0 | 0.00 | 0.00 | 0.00 | 73 | 1008.2 |
| 20260509223338 | 86 | 115 | 0.0 | 0.0 | 0.00 | 0.00 | 0.00 | 73 | 1008.1 |
| 20260509222325 | 87 | 115 | 0.0 | 0.9 | 0.00 | 0.00 | 0.00 | 70 | 1008.3 |
| 20260509221349 | 87 | 115 | 0.9 | 1.7 | 0.00 | 0.00 | 0.00 | 70 | 1007.9 |
| 20260509220331 | 86 | 107 | 0.0 | 0.0 | 0.00 | 0.00 | 0.00 | 70 | 1007.8 |
| 20260509215339 | 86 | 107 | 0.0 | 0.0 | 0.00 | 0.00 | 0.00 | 69 | 1008.0 |
| 20260509214330 | 86 | 107 | 0.0 | 0.0 | 0.00 | 0.00 | 0.00 | 71 | 1008.0 |
| 20260509213338 | 87 | 113 | 0.9 | 2.6 | 0.00 | 0.00 | 0.00 | 70 | 1008.1 |
| 20260509212344 | 88 | 319 | 0.0 | 2.6 | 0.00 | 0.00 | 0.00 | 65 | 1008.0 |
| 20260509211329 | 88 | 13 | 2.6 | 4.3 | 0.00 | 0.00 | 0.00 | 65 | 1008.1 |
| 20260509210338 | 88 | 292 | 0.0 | 0.0 | 0.00 | 0.00 | 0.00 | 66 | 1008.1 |
| 20260509205326 | 87 | 318 | 0.0 | 3.5 | 0.00 | 0.00 | 0.00 | 70 | 1008.4 |
| 20260509204334 | 87 | 100 | 0.0 | 1.7 | 0.00 | 0.00 | 0.00 | 71 | 1008.6 |
| 20260509203341 | 87 | 308 | 0.0 | 2.6 | 0.00 | 0.00 | 0.00 | 71 | 1008.6 |
| 20260509202333 | 86 | 171 | 0.0 | 2.6 | 0.00 | 0.00 | 0.00 | 71 | 1008.7 |
| 20260509201341 | 86 | 127 | 0.9 | 2.6 | 0.00 | 0.00 | 0.00 | 72 | 1008.8 |
| 20260509200330 | 86 | 54 | 0.9 | 2.6 | 0.00 | 0.00 | 0.00 | 74 | 1008.9 |
| 20260509195359 | 85 | 7 | 0.0 | 1.7 | 0.00 | 0.00 | 0.00 | 76 | 1009.0 |
| 20260509194326 | 86 | 340 | 0.9 | 3.5 | 0.00 | 0.00 | 0.00 | 74 | 1009.1 |
| 20260509193332 | 85 | 130 | 0.0 | 2.6 | 0.00 | 0.00 | 0.00 | 75 | 1009.2 |
| 20260509192359 | 85 | 114 | 0.0 | 2.6 | 0.00 | 0.00 | 0.00 | 76 | 1009.4 |
| 20260509191331 | 85 | 85 | 0.0 | 2.6 | 0.00 | 0.00 | 0.00 | 75 | 1009.4 |
| 20260509190337 | 85 | 121 | 0.9 | 3.5 | 0.00 | 0.00 | 0.00 | 76 | 1009.5 |
| 20260509185324 | 84 | 129 | 0.9 | 2.6 | 0.00 | 0.00 | 0.00 | 76 | 1009.6 |
| 20260509184332 | 84 | 254 | 0.0 | 2.6 | 0.00 | 0.00 | 0.00 | 76 | 1009.6 |
| 20260509183339 | 84 | 131 | 2.6 | 6.1 | 0.00 | 0.00 | 0.00 | 78 | 1009.7 |
| 20260509182327 | 84 | 147 | 1.7 | 6.1 | 0.00 | 0.00 | 0.00 | 78 | 1009.8 |
| 20260509181335 | 84 | 119 | 2.6 | 5.2 | 0.00 | 0.00 | 0.00 | 79 | 1009.8 |
| 20260509180327 | 83 | 133 | 0.9 | 3.5 | 0.00 | 0.00 | 0.00 | 80 | 1010.2 |
| 20260509175335 | 83 | 119 | 2.6 | 5.2 | 0.00 | 0.00 | 0.00 | 78 | 1010.3 |
| 20260509174341 | 82 | 175 | 0.9 | 2.6 | 0.00 | 0.00 | 0.00 | 80 | 1010.5 |
| 20260509173330 | 82 | 164 | 0.9 | 4.3 | 0.00 | 0.00 | 0.00 | 81 | 1010.7 |
| 20260509172337 | 82 | 138 | 1.7 | 2.6 | 0.00 | 0.00 | 0.00 | 82 | 1010.9 |
| 20260509171323 | 82 | 159 | 0.0 | 2.6 | 0.00 | 0.00 | 0.00 | 83 | 1011.0 |
| 20260509170352 | 81 | 153 | 0.9 | 2.6 | 0.00 | 0.00 | 0.00 | 81 | 1010.8 |
| 20260509165342 | 81 | 173 | 0.0 | 0.0 | 0.00 | 0.00 | 0.00 | 83 | 1010.5 |
| 20260509164331 | 81 | 204 | 0.0 | 0.0 | 0.00 | 0.00 | 0.00 | 83 | 1010.7 |
| 20260509163339 | 81 | 10 | 0.0 | 0.0 | 0.00 | 0.00 | 0.00 | 84 | 1010.7 |
| 20260509162327 | 80 | 117 | 0.0 | 0.0 | 0.00 | 0.00 | 0.00 | 86 | 1010.8 |
| 20260509161335 | 79 | 11 | 0.0 | 0.0 | 0.00 | 0.00 | 0.00 | 87 | 1011.0 |
| 20260509160342 | 79 | 5 | 0.0 | 0.0 | 0.00 | 0.00 | 0.00 | 88 | 1011.0 |
| 20260509155334 | 78 | 29 | 0.0 | 0.0 | 0.00 | 0.00 | 0.00 | 89 | 1011.2 |
| 20260509154341 | 78 | 335 | 0.0 | 0.0 | 0.00 | 0.00 | 0.00 | 90 | 1011.2 |
| 20260509153350 | 78 | 11 | 0.0 | 0.0 | 0.00 | 0.00 | 0.00 | 91 | 1011.1 |
| 20260509152338 | 78 | 11 | 0.0 | 0.0 | 0.00 | 0.00 | 0.00 | 91 | 1011.1 |
| 20260509151331 | 77 | 11 | 0.0 | 0.0 | 0.00 | 0.00 | 0.00 | 92 | 1010.8 |
| 20260509150340 | 77 | 11 | 0.0 | 0.0 | 0.00 | 0.00 | 0.00 | 93 | 1010.9 |
| 20260509145349 | 77 | 11 | 0.0 | 0.0 | 0.00 | 0.00 | 0.00 | 94 | 1010.6 |
| 20260509144339 | 77 | 12 | 0.0 | 0.0 | 0.00 | 0.00 | 0.00 | 94 | 1010.2 |
| 20260509143348 | 77 | 12 | 0.0 | 0.0 | 0.00 | 0.00 | 0.00 | 94 | 1010.2 |
| 20260509142353 | 76 | 21 | 0.0 | 0.0 | 0.00 | 0.00 | 0.00 | 94 | 1010.0 |
| 20260509141400 | 76 | 21 | 0.0 | 0.0 | 0.00 | 0.00 | 0.00 | 95 | 1009.8 |
| 20260509140326 | 76 | 113 | 0.0 | 0.0 | 0.00 | 0.00 | 0.00 | 95 | 1010.1 |
| 20260509135334 | 76 | 112 | 0.0 | 0.0 | 0.00 | 0.00 | 0.00 | 95 | 1010.2 |
| 20260509134340 | 76 | 123 | 0.0 | 0.0 | 0.00 | 0.00 | 0.00 | 95 | 1010.1 |
| 20260509133330 | 76 | 123 | 0.0 | 0.0 | 0.00 | 0.00 | 0.00 | 95 | 1010.4 |
| 20260509132323 | 76 | 123 | 0.0 | 0.0 | 0.00 | 0.00 | 0.00 | 95 | 1010.7 |
| 20260509131331 | 76 | 180 | 0.0 | 0.9 | 0.00 | 0.00 | 0.00 | 95 | 1010.7 |
| 20260509130339 | 76 | 171 | 0.0 | 0.9 | 0.00 | 0.00 | 0.00 | 95 | 1010.9 |
| 20260509125327 | 75 | 125 | 0.0 | 0.0 | 0.00 | 0.00 | 0.00 | 95 | 1010.8 |
| 20260509124356 | 75 | 126 | 0.0 | 0.9 | 0.00 | 0.00 | 0.00 | 95 | 1010.9 |
| 20260509123343 | 75 | 126 | 0.0 | 0.0 | 0.00 | 0.00 | 0.00 | 95 | 1010.9 |
| 20260509122330 | 75 | 126 | 0.0 | 2.6 | 0.00 | 0.00 | 0.00 | 95 | 1010.5 |
| 20260509121342 | 75 | 115 | 0.0 | 0.0 | 0.00 | 0.00 | 0.00 | 95 | 1010.6 |
| 20260509120329 | 75 | 333 | 0.0 | 0.0 | 0.00 | 0.00 | 0.00 | 95 | 1011.0 |
| 20260509115337 | 75 | 333 | 0.0 | 0.0 | 0.00 | 0.00 | 0.00 | 95 | 1010.8 |
| 20260509114323 | 75 | 345 | 0.0 | 1.7 | 0.00 | 0.00 | 0.00 | 95 | 1010.8 |
| 20260509113339 | 75 | 19 | 0.9 | 1.7 | 0.00 | 0.00 | 0.00 | 95 | 1010.8 |
| 20260509112327 | 75 | 333 | 1.7 | 5.2 | 0.00 | 0.00 | 0.00 | 95 | 1010.9 |
| 20260509111338 | 75 | 40 | 0.0 | 0.0 | 0.00 | 0.00 | 0.00 | 95 | 1010.6 |
| 20260509110329 | 75 | 350 | 0.0 | 1.7 | 0.00 | 0.00 | 0.00 | 95 | 1010.2 |
| 20260509105335 | 75 | 127 | 0.0 | 0.0 | 0.00 | 0.00 | 0.00 | 95 | 1010.3 |
| 20260509104343 | 75 | 127 | 0.0 | 0.0 | 0.00 | 0.00 | 0.00 | 95 | 1010.3 |
| 20260509103330 | 75 | 123 | 0.0 | 0.0 | 0.00 | 0.00 | 0.00 | 95 | 1010.0 |
| 20260509102337 | 75 | 180 | 0.0 | 0.0 | 0.00 | 0.00 | 0.00 | 95 | 1010.0 |
| 20260509101336 | 75 | 180 | 0.0 | 0.0 | 0.00 | 0.00 | 0.00 | 95 | 1010.2 |
| 20260509100329 | 75 | 181 | 0.0 | 0.0 | 0.00 | 0.00 | 0.00 | 95 | 1010.0 |
| 20260509095338 | 75 | 180 | 0.0 | 0.0 | 0.00 | 0.00 | 0.00 | 95 | 1009.9 |
| 20260509094325 | 75 | 180 | 0.0 | 0.0 | 0.00 | 0.00 | 0.00 | 95 | 1009.6 |
| 20260509093335 | 75 | 180 | 0.0 | 0.0 | 0.00 | 0.00 | 0.00 | 95 | 1009.6 |
| 20260509092341 | 75 | 180 | 0.0 | 0.0 | 0.00 | 0.00 | 0.00 | 95 | 1009.7 |
| 20260509091329 | 75 | 180 | 0.0 | 0.0 | 0.00 | 0.00 | 0.00 | 95 | 1009.8 |
| 20260509090339 | 75 | 181 | 0.0 | 0.0 | 0.00 | 0.00 | 0.00 | 95 | 1010.0 |
| 20260509085328 | 75 | 181 | 0.0 | 0.0 | 0.00 | 0.00 | 0.00 | 95 | 1010.2 |
| 20260509084357 | 75 | 177 | 0.0 | 0.0 | 0.00 | 0.00 | 0.00 | 95 | 1010.2 |
| 20260509083327 | 75 | 177 | 0.0 | 0.0 | 0.00 | 0.00 | 0.00 | 95 | 1010.1 |
| 20260509082334 | 75 | 177 | 0.0 | 0.0 | 0.00 | 0.00 | 0.00 | 95 | 1010.2 |
| 20260509081341 | 75 | 150 | 0.0 | 2.6 | 0.00 | 0.00 | 0.00 | 95 | 1010.2 |
| 20260509080329 | 75 | 121 | 0.0 | 0.0 | 0.00 | 0.00 | 0.00 | 95 | 1010.1 |
| 20260509075339 | 75 | 119 | 0.0 | 2.6 | 0.00 | 0.00 | 0.00 | 95 | 1010.1 |
| 20260509074324 | 75 | 127 | 0.9 | 3.5 | 0.00 | 0.00 | 0.00 | 95 | 1009.9 |
| 20260509073334 | 75 | 138 | 2.6 | 4.3 | 0.00 | 0.00 | 0.00 | 95 | 1009.7 |
| 20260509072341 | 75 | 132 | 2.6 | 4.3 | 0.00 | 0.00 | 0.00 | 95 | 1009.8 |
| 20260509071329 | 75 | 122 | 2.6 | 6.1 | 0.00 | 0.00 | 0.00 | 94 | 1009.8 |
| 20260509070338 | 75 | 119 | 3.5 | 7.0 | 0.00 | 0.00 | 0.00 | 94 | 1009.6 |
| 20260509065329 | 75 | 133 | 3.5 | 5.2 | 0.00 | 0.00 | 0.00 | 94 | 1009.8 |
| 20260509064335 | 75 | 123 | 3.5 | 7.0 | 0.00 | 0.00 | 0.00 | 94 | 1009.9 |
| 20260509063324 | 75 | 127 | 2.6 | 4.3 | 0.00 | 0.00 | 0.00 | 93 | 1010.1 |
| 20260509062350 | 75 | 129 | 2.6 | 4.3 | 0.00 | 0.00 | 0.00 | 93 | 1010.3 |
| 20260509061337 | 75 | 127 | 1.7 | 2.6 | 0.00 | 0.00 | 0.00 | 93 | 1010.4 |
| 20260509060323 | 75 | 133 | 2.6 | 4.3 | 0.00 | 0.00 | 0.00 | 92 | 1010.6 |
| 20260509055330 | 75 | 131 | 2.6 | 3.5 | 0.00 | 0.00 | 0.00 | 92 | 1010.5 |
| 20260509054342 | 75 | 126 | 2.6 | 5.2 | 0.00 | 0.00 | 0.00 | 92 | 1010.5 |
| 20260509053329 | 75 | 129 | 1.7 | 2.6 | 0.00 | 0.00 | 0.00 | 92 | 1010.6 |
| 20260509052336 | 75 | 129 | 1.7 | 2.6 | 0.00 | 0.00 | 0.00 | 92 | 1010.6 |
| 20260509051343 | 75 | 131 | 0.9 | 1.7 | 0.00 | 0.00 | 0.00 | 92 | 1010.7 |
| 20260509050330 | 75 | 151 | 0.0 | 0.0 | 0.00 | 0.00 | 0.00 | 92 | 1010.6 |
| 20260509045329 | 75 | 95 | 0.0 | 0.0 | 0.00 | 0.00 | 0.00 | 92 | 1010.5 |
| 20260509044337 | 75 | 81 | 0.0 | 0.0 | 0.00 | 0.00 | 0.00 | 91 | 1010.5 |
| 20260509043325 | 75 | 52 | 0.0 | 0.0 | 0.00 | 0.00 | 0.00 | 91 | 1010.5 |
| 20260509042337 | 75 | 115 | 0.0 | 0.0 | 0.00 | 0.00 | 0.00 | 91 | 1010.5 |
| 20260509041343 | 75 | 113 | 0.0 | 2.6 | 0.00 | 0.00 | 0.00 | 91 | 1010.5 |
| 20260509040331 | 75 | 128 | 2.6 | 5.2 | 0.00 | 0.00 | 0.00 | 91 | 1010.4 |
| 20260509035336 | 75 | 102 | 1.7 | 3.5 | 0.00 | 0.00 | 0.00 | 91 | 1010.4 |
| 20260509034403 | 75 | 125 | 2.6 | 5.2 | 0.00 | 0.00 | 0.00 | 91 | 1010.4 |
| 20260509033324 | 74 | 144 | 1.7 | 3.5 | 0.00 | 0.00 | 0.00 | 91 | 1010.3 |
| 20260509032352 | 74 | 129 | 0.0 | 1.7 | 0.00 | 0.00 | 0.00 | 91 | 1010.2 |
| 20260509031339 | 74 | 28 | 0.0 | 1.7 | 0.00 | 0.00 | 0.00 | 91 | 1010.0 |
| 20260509030332 | 74 | 54 | 0.0 | 0.0 | 0.00 | 0.00 | 0.00 | 91 | 1010.1 |
| 20260509025340 | 74 | 54 | 0.0 | 0.0 | 0.00 | 0.00 | 0.00 | 91 | 1010.0 |
| 20260509024325 | 74 | 54 | 0.0 | 0.0 | 0.00 | 0.00 | 0.00 | 90 | 1009.9 |
| 20260509023333 | 74 | 54 | 0.0 | 0.0 | 0.00 | 0.00 | 0.00 | 90 | 1009.9 |
| 20260509022341 | 74 | 54 | 0.0 | 0.0 | 0.00 | 0.00 | 0.00 | 90 | 1010.0 |
| 20260509021330 | 74 | 102 | 0.0 | 0.0 | 0.00 | 0.00 | 0.00 | 90 | 1009.7 |
| 20260509020341 | 74 | 131 | 0.0 | 0.0 | 0.00 | 0.00 | 0.00 | 90 | 1009.6 |
| 20260509015352 | 74 | 131 | 0.0 | 0.0 | 0.00 | 0.00 | 0.00 | 90 | 1009.4 |
| 20260509014324 | 74 | 128 | 0.0 | 2.6 | 0.00 | 0.00 | 0.00 | 90 | 1009.2 |
| 20260509013335 | 74 | 82 | 0.0 | 0.9 | 0.00 | 0.00 | 0.00 | 89 | 1009.2 |
| 20260509012344 | 75 | 82 | 0.0 | 0.9 | 0.00 | 0.00 | 0.00 | 89 | 1009.2 |
| 20260509011332 | 75 | 27 | 0.0 | 0.0 | 0.00 | 0.00 | 0.00 | 89 | 1009.2 |
| 20260509010340 | 75 | 107 | 0.0 | 0.9 | 0.00 | 0.00 | 0.00 | 89 | 1009.4 |
| 20260509005331 | 75 | 111 | 0.0 | 2.6 | 0.00 | 0.00 | 0.00 | 88 | 1009.3 |
| 20260509004339 | 75 | 92 | 0.9 | 1.7 | 0.00 | 0.00 | 0.00 | 88 | 1009.1 |
| 20260509003330 | 75 | 140 | 0.9 | 4.3 | 0.00 | 0.00 | 0.00 | 88 | 1009.1 |
| 20260509002336 | 76 | 111 | 0.0 | 0.9 | 0.00 | 0.00 | 0.00 | 88 | 1009.0 |
| 20260509001403 | 76 | 119 | 0.0 | 1.7 | 0.00 | 0.00 | 0.00 | 88 | 1009.0 |
| 20260509000330 | 76 | 102 | 0.9 | 2.6 | 0.00 | 0.00 | 0.00 | 88 | 1009.1 |
| 20260508235337 | 76 | 108 | 0.0 | 1.7 | 0.00 | 0.00 | 0.00 | 88 | 1009.2 |
| 20260508234329 | 76 | 77 | 0.0 | 1.7 | 0.00 | 0.00 | 0.00 | 88 | 1009.2 |
| 20260508233338 | 76 | 95 | 0.0 | 0.0 | 0.00 | 0.00 | 0.00 | 87 | 1009.2 |
| 20260508232325 | 76 | 84 | 0.0 | 2.6 | 0.00 | 0.00 | 0.00 | 87 | 1009.1 |
| 20260508231353 | 77 | 111 | 0.9 | 2.6 | 0.00 | 0.00 | 0.00 | 87 | 1009.2 |
| 20260508230339 | 77 | 115 | 0.0 | 0.0 | 0.00 | 0.00 | 0.00 | 87 | 1009.2 |
| 20260508225325 | 77 | 111 | 0.0 | 2.6 | 0.00 | 0.00 | 0.00 | 87 | 1009.2 |